Grosse Ile, MI

1:41 AM EDT on September 29, 2016 (GMT -0400)
Grosse Ile Municipal

Weather History for KONZ - August, 2012

Change the Weather History Date:

Thursday, August 16, 2012

  Actual Average (KDTW) Record (KDTW)
Temperature  
Mean Temperature 74 °F 72 °F  
Max Temperature 82 °F 82 °F 95 °F (1936)
Min Temperature 66 °F 63 °F 43 °F (1979)
Degree Days  
Heating Degree Days 0 0  
Month to date heating degree days 0  
Since 1 June heating degree days 37  
Since 1 July heating degree days 2  
Cooling Degree Days 9 7  
Month to date cooling degree days 127  
Year to date cooling degree days 613  
Since 1 June cooling degree days 565  
Growing Degree Days 24 (Base 50)    
Moisture  
Dew Point 66 °F    
Average Humidity 75    
Maximum Humidity 94    
Minimum Humidity 54    
Precipitation  
Precipitation 0.00 in 0.10 in 2.81 in (1974)
Month to date precipitation 1.64  
Year to date precipitation 21.07  
Snow  
Snow 0.00 in 0.00 in 0.00 in ()
Month to date snowfall 0.0  
Since 1 June snowfall 0.0  
Since 1 July snowfall 0.0  
Snow Depth -    
Sea Level Pressure  
Sea Level Pressure 29.88 in    
Wind  
Wind Speed 5 mph (SSW)    
Max Wind Speed 18 mph    
Max Gust Speed 24 mph    
Visibility 10 miles    
Events Rain    
T = Trace of Precipitation, MM = Missing Value Source: NWS Daily Summary

Daily Weather History Graph

Daily Weather History Graph

Search for Another Location

Airport or City:

Trip Planner

Search our weather history database for the weather conditions in past years. The results will help you decide how hot, cold, wet, or windy it might be!

Date:

Astronomy

Aug. 16, 2012 Rise Set
Actual Time 6:41 AM EDT 8:30 PM EDT
Civil Twilight 6:11 AM EDT 9:00 PM EDT
Nautical Twilight 5:35 AM EDT 9:37 PM EDT
Astronomical Twilight 4:55 AM EDT 10:16 PM EDT
Moon 5:39 AM EDT (8/16) 7:39 PM EDT (8/16)
Length of Visible Light 14h 49m
Length of Day
13h 49m
Waning Crescent, 1% of the Moon is Illuminated
Aug 16
Waning Crescent
Aug 17
New
Aug 24
First Quarter
Aug 31
Full
Sep 8
Last Quarter

Hourly Weather History & Observations

Time (EDT) Temp. Heat Index Dew Point Humidity Pressure Visibility Wind Dir Wind Speed Gust Speed Precip Events Conditions
12:54 AM 66.2 °F - 64.4 °F 94% 29.96 in 7.0 mi Calm Calm - N/A   Clear
1:14 AM 66.2 °F - 64.4 °F 94% 29.96 in 10.0 mi Calm Calm - N/A   Clear
1:35 AM 66.2 °F - 64.4 °F 94% 29.97 in 7.0 mi Calm Calm - N/A   Clear
1:54 AM 66.2 °F - 64.4 °F 94% 29.97 in 10.0 mi Calm Calm - N/A   Clear
2:14 AM 66.2 °F - 64.4 °F 94% 29.97 in 10.0 mi Calm Calm - N/A   Clear
2:34 AM 69.8 °F - 64.4 °F 83% 29.96 in 10.0 mi Calm Calm - N/A   Clear
2:54 AM 69.8 °F - 64.4 °F 83% 29.96 in 10.0 mi Calm Calm - N/A   Clear
3:14 AM 68.0 °F - 64.4 °F 88% 29.96 in 10.0 mi Calm Calm - N/A   Clear
3:34 AM 68.0 °F - 64.4 °F 88% 29.96 in 10.0 mi Calm Calm - N/A   Clear
3:54 AM 68.0 °F - 64.4 °F 88% 29.96 in 10.0 mi Calm Calm - N/A   Clear
4:14 AM 66.2 °F - 62.6 °F 88% 29.96 in 10.0 mi Calm Calm - N/A   Clear
4:34 AM 66.2 °F - 62.6 °F 88% 29.96 in 10.0 mi South 3.5 mph - N/A   Clear
4:54 AM 66.2 °F - 62.6 °F 88% 29.96 in 10.0 mi Calm Calm - N/A   Clear
5:14 AM 66.2 °F - 62.6 °F 88% 29.96 in 10.0 mi Calm Calm - N/A   Clear
5:34 AM 66.2 °F - 62.6 °F 88% 29.95 in 10.0 mi Calm Calm - N/A   Clear
5:54 AM 66.2 °F - 62.6 °F 88% 29.96 in 10.0 mi Calm Calm - N/A   Scattered Clouds
6:14 AM 66.2 °F - 62.6 °F 88% 29.95 in 10.0 mi South 3.5 mph - N/A   Scattered Clouds
6:34 AM 66.2 °F - 62.6 °F 88% 29.94 in 10.0 mi South 3.5 mph - N/A   Clear
6:54 AM 66.2 °F - 62.6 °F 88% 29.94 in 7.0 mi South 5.8 mph - N/A   Clear
7:14 AM 68.0 °F - 64.4 °F 88% 29.94 in 10.0 mi Calm Calm - N/A   Clear
7:34 AM 69.8 °F - 64.4 °F 83% 29.94 in 10.0 mi South 4.6 mph - N/A   Clear
7:55 AM 71.6 °F - 66.2 °F 83% 29.93 in 10.0 mi South 5.8 mph - N/A   Clear
8:14 AM 71.6 °F - 68.0 °F 88% 29.92 in 7.0 mi SSE 8.1 mph - N/A   Clear
8:34 AM 73.4 °F - 68.0 °F 83% 29.92 in 10.0 mi South 8.1 mph - N/A   Clear
8:54 AM 73.4 °F - 69.8 °F 88% 29.93 in 10.0 mi South 4.6 mph - N/A   Clear
9:14 AM 75.2 °F - 68.0 °F 78% 29.92 in 10.0 mi South 6.9 mph - N/A   Clear
9:34 AM 75.2 °F - 68.0 °F 78% 29.93 in 10.0 mi South 8.1 mph - N/A   Clear
9:54 AM 75.2 °F - 69.8 °F 83% 29.92 in 10.0 mi South 9.2 mph - N/A   Clear
10:14 AM 78.8 °F - 66.2 °F 65% 29.93 in 10.0 mi SSW 6.9 mph - N/A   Clear
10:34 AM 78.8 °F - 66.2 °F 65% 29.93 in 10.0 mi South 6.9 mph - N/A   Clear
10:54 AM 80.6 °F 82.7 °F 66.2 °F 61% 29.92 in 10.0 mi SSW 8.1 mph - N/A   Clear
11:14 AM 80.6 °F 83.9 °F 69.8 °F 70% 29.91 in 10.0 mi South 9.2 mph - N/A   Clear
11:34 AM 78.8 °F - 69.8 °F 74% 29.90 in 10.0 mi South 11.5 mph - N/A   Clear
11:54 AM 78.8 °F - 69.8 °F 74% 29.89 in 10.0 mi South 12.7 mph - N/A   Clear
12:14 PM 78.8 °F - 69.8 °F 74% 29.90 in 10.0 mi South 13.8 mph - N/A   Clear
12:34 PM 80.6 °F 83.9 °F 69.8 °F 70% 29.91 in 10.0 mi South 12.7 mph - N/A   Clear
12:54 PM 80.6 °F 83.2 °F 68.0 °F 65% 29.91 in 10.0 mi South 15.0 mph - N/A   Scattered Clouds
1:14 PM 80.6 °F 83.9 °F 69.8 °F 70% 29.92 in 10.0 mi South 13.8 mph - N/A   Scattered Clouds
1:35 PM 80.6 °F 83.9 °F 69.8 °F 70% 29.91 in 10.0 mi South 11.5 mph - N/A   Scattered Clouds
1:54 PM 82.4 °F 83.9 °F 64.4 °F 54% 29.90 in 10.0 mi SSW 10.4 mph 16.1 mph N/A   Scattered Clouds
2:14 PM 82.4 °F 83.9 °F 64.4 °F 54% 29.91 in 10.0 mi SW 12.7 mph 21.9 mph N/A   Scattered Clouds
2:34 PM 82.4 °F 83.9 °F 64.4 °F 54% 29.89 in 10.0 mi SW 9.2 mph 20.7 mph N/A   Mostly Cloudy
2:54 PM 80.6 °F 82.3 °F 64.4 °F 58% 29.87 in 10.0 mi SW 6.9 mph 17.3 mph N/A   Mostly Cloudy
3:14 PM 80.6 °F 82.3 °F 64.4 °F 58% 29.84 in 10.0 mi SSW 5.8 mph - N/A   Scattered Clouds
3:34 PM 80.6 °F 82.3 °F 64.4 °F 58% 29.82 in 10.0 mi SSW 12.7 mph 18.4 mph N/A   Clear
3:54 PM 80.6 °F 83.9 °F 69.8 °F 70% 29.78 in 10.0 mi South 17.3 mph - N/A   Clear
4:14 PM 80.6 °F 82.3 °F 64.4 °F 58% 29.81 in 10.0 mi SSW 11.5 mph 24.2 mph N/A   Scattered Clouds
4:34 PM 80.6 °F 82.7 °F 66.2 °F 61% 29.80 in 10.0 mi SSW 15.0 mph 20.7 mph N/A   Scattered Clouds
4:54 PM 80.6 °F 83.2 °F 68.0 °F 65% 29.78 in 10.0 mi South 15.0 mph - N/A   Clear
5:14 PM 80.6 °F 82.7 °F 66.2 °F 61% 29.78 in 10.0 mi SSW 16.1 mph 23.0 mph N/A   Clear
5:34 PM 80.6 °F 83.9 °F 69.8 °F 70% 29.77 in 10.0 mi South 10.4 mph - N/A   Clear
5:54 PM 80.6 °F 82.7 °F 66.2 °F 61% 29.77 in 10.0 mi South 9.2 mph - N/A   Clear
6:14 PM 78.8 °F - 68.0 °F 69% 29.77 in 10.0 mi SSW 8.1 mph - N/A   Clear
6:34 PM 78.8 °F - 66.2 °F 65% 29.77 in 10.0 mi SSW 9.2 mph - N/A   Clear
6:54 PM 78.8 °F - 64.4 °F 61% 29.77 in 10.0 mi SW 12.7 mph 24.2 mph N/A   Clear
7:14 PM 77.0 °F - 64.4 °F 65% 29.77 in 10.0 mi SW 18.4 mph 23.0 mph N/A   Clear
7:34 PM 75.2 °F - 64.4 °F 69% 29.77 in 10.0 mi SW 12.7 mph 21.9 mph N/A   Clear
7:54 PM 75.2 °F - 64.4 °F 69% 29.78 in 10.0 mi SW 13.8 mph 17.3 mph N/A   Clear
8:14 PM 75.2 °F - 64.4 °F 69% 29.79 in 10.0 mi SW 9.2 mph 17.3 mph N/A   Scattered Clouds
8:34 PM 75.2 °F - 64.4 °F 69% 29.79 in 10.0 mi SW 10.4 mph - N/A   Clear
8:54 PM 73.4 °F - 64.4 °F 73% 29.79 in 10.0 mi SW 8.1 mph - N/A   Clear
9:14 PM 73.4 °F - 64.4 °F 73% 29.79 in 10.0 mi SW 9.2 mph 16.1 mph N/A   Clear
9:34 PM 73.4 °F - 64.4 °F 73% 29.79 in 10.0 mi SSW 8.1 mph - N/A   Clear
9:54 PM 73.4 °F - 64.4 °F 73% 29.79 in 10.0 mi SW 8.1 mph - N/A   Clear
10:14 PM 73.4 °F - 64.4 °F 73% 29.80 in 10.0 mi SSW 9.2 mph - N/A   Scattered Clouds
10:34 PM 73.4 °F - 64.4 °F 73% 29.81 in 10.0 mi SW 9.2 mph - N/A   Overcast
10:54 PM 73.4 °F - 64.4 °F 73% 29.81 in 10.0 mi SW 9.2 mph - N/A   Overcast
11:14 PM 73.4 °F - 64.4 °F 73% 29.81 in 10.0 mi SW 10.4 mph - N/A   Overcast
11:34 PM 69.8 °F - 66.2 °F 88% 29.81 in 5.0 mi WSW 10.4 mph - N/A Rain Rain
11:54 PM 69.8 °F - 66.2 °F 88% 29.81 in 7.0 mi SW 11.5 mph 17.3 mph N/A   Overcast